TimeAEST,TemperatureF,Dew PointF,Humidity,Sea Level PressureIn,VisibilityMPH,Wind Direction,Wind SpeedMPH,Gust SpeedMPH,PrecipitationIn,Events,Conditions,WindDirDegrees,DateUTC
12:00 AM,48,41,70,30.18,,WNW,6.9,,,,,290,2013-04-30 14:00:00
12:00 AM,48.2,41.0,76,30.15,6.2,WNW,6.9,-,N/A,,Scattered Clouds,290,2013-04-30 14:00:00
12:30 AM,50.0,44.6,82,30.15,6.2,West,10.4,-,N/A,,Overcast,280,2013-04-30 14:30:00
1:00 AM,51.8,44.6,76,30.15,6.2,NW,10.4,-,N/A,,Overcast,310,2013-04-30 15:00:00
1:30 AM,53.6,44.6,72,30.15,6.2,NW,9.2,-,N/A,,Overcast,310,2013-04-30 15:30:00
2:00 AM,51.8,44.6,76,30.15,6.2,NW,9.2,-,N/A,,Overcast,310,2013-04-30 16:00:00
2:30 AM,53.6,44.6,72,30.15,6.2,NW,9.2,-,N/A,Rain,Light Rain,310,2013-04-30 16:30:00
3:00 AM,53,45,67,30.16,,NW,10.4,,,,Overcast,310,2013-04-30 17:00:00
3:00 AM,53.6,44.6,72,30.15,6.2,NW,10.4,-,N/A,,Overcast,310,2013-04-30 17:00:00
3:30 AM,51.8,44.6,76,30.12,6.2,NW,6.9,-,N/A,,Overcast,320,2013-04-30 17:30:00
4:00 AM,51.8,44.6,76,30.12,6.2,WNW,5.8,-,N/A,,Overcast,300,2013-04-30 18:00:00
4:30 AM,51.8,44.6,76,30.12,6.2,NNW,6.9,-,N/A,,Overcast,340,2013-04-30 18:30:00
5:00 AM,51.8,44.6,76,30.12,6.2,North,5.8,-,N/A,,Overcast,350,2013-04-30 19:00:00
5:30 AM,51.8,44.6,76,30.12,6.2,North,6.9,-,N/A,,Overcast,350,2013-04-30 19:30:00
6:00 AM,51,44,70,30.13,,North,6.9,,,,Overcast,350,2013-04-30 20:00:00
6:00 AM,51.8,44.6,76,30.12,6.2,North,6.9,-,N/A,,Overcast,350,2013-04-30 20:00:00
6:30 AM,51.8,44.6,76,30.12,6.2,NW,6.9,-,N/A,,Overcast,310,2013-04-30 20:30:00
7:00 AM,51.8,44.6,76,30.12,6.2,NNW,6.9,-,N/A,,Overcast,330,2013-04-30 21:00:00
7:30 AM,51.8,44.6,76,30.12,6.2,NW,6.9,-,N/A,,Overcast,310,2013-04-30 21:30:00
8:00 AM,53.6,44.6,72,30.12,6.2,NW,10.4,-,N/A,,Overcast,310,2013-04-30 22:00:00
8:30 AM,55.4,44.6,67,30.15,6.2,WNW,12.7,-,N/A,,Overcast,300,2013-04-30 22:30:00
9:00 AM,56,46,59,30.16,,WNW,13.8,,,,,300,2013-04-30 23:00:00
9:00 AM,55.4,46.4,72,30.15,6.2,WNW,13.8,-,N/A,,Overcast,290,2013-04-30 23:00:00
9:30 AM,57.2,46.4,67,30.15,6.2,West,16.1,-,N/A,,Overcast,280,2013-04-30 23:30:00
10:01 AM,55.4,46.4,72,30.18,6.2,West,18.4,34.5,N/A,,Heavy Drizzle,260,2013-05-01 00:01:00
10:03 AM,53.6,48.2,82,30.18,3.7,West,21.9,35.7,N/A,,Heavy Drizzle,260,2013-05-01 00:03:00
10:21 AM,53.6,48.2,82,30.18,6.2,WSW,16.1,-,N/A,,Overcast,250,2013-05-01 00:21:00
10:30 AM,53.6,48.2,82,30.18,6.2,WSW,16.1,-,N/A,,Overcast,250,2013-05-01 00:30:00
11:00 AM,55.4,48.2,77,30.18,6.2,West,10.4,-,N/A,Rain,Light Rain Showers,260,2013-05-01 01:00:00
11:30 AM,55.4,50.0,82,30.18,6.2,West,10.4,-,N/A,Rain,Light Rain Showers,270,2013-05-01 01:30:00
12:00 PM,56,51,77,30.18,,West,12.7,,,,Overcast,280,2013-05-01 02:00:00
12:00 PM,55.4,51.8,88,30.18,6.2,West,12.7,-,N/A,Rain,Light Rain Showers,280,2013-05-01 02:00:00
12:30 PM,59.0,51.8,77,30.15,6.2,WNW,15.0,-,N/A,,Scattered Clouds,290,2013-05-01 02:30:00
1:00 PM,59.0,48.2,67,30.15,6.2,West,17.3,-,N/A,,Scattered Clouds,270,2013-05-01 03:00:00
1:30 PM,59.0,48.2,67,30.15,6.2,West,17.3,-,N/A,,Drizzle,260,2013-05-01 03:30:00
2:00 PM,55.4,48.2,77,30.15,6.2,SW,10.4,-,N/A,Rain,Light Rain Showers,230,2013-05-01 04:00:00
2:14 PM,55.4,50.0,82,30.15,6.2,West,10.4,-,N/A,Rain-Thunderstorm,Light Rain Showers,270,2013-05-01 04:14:00
2:25 PM,55.4,51.8,88,30.15,6.2,West,10.4,-,N/A,,Overcast,280,2013-05-01 04:25:00
2:30 PM,57.2,51.8,82,30.15,6.2,West,11.5,-,N/A,,Mostly Cloudy,280,2013-05-01 04:30:00
3:00 PM,59,50,64,30.17,,SSW,12.7,,,,,210,2013-05-01 05:00:00
3:00 PM,59.0,50.0,72,30.15,6.2,SSW,12.7,-,N/A,,Scattered Clouds,210,2013-05-01 05:00:00
3:30 PM,55.4,50.0,82,30.18,6.2,SW,18.4,-,N/A,Rain,Light Rain Showers,220,2013-05-01 05:30:00
4:00 PM,57.2,46.4,67,30.18,6.2,SW,18.4,-,N/A,Rain,Light Rain Showers,230,2013-05-01 06:00:00
4:30 PM,55.4,50.0,82,30.18,6.2,West,10.4,-,N/A,,Mostly Cloudy,280,2013-05-01 06:30:00
5:00 PM,57.2,48.2,72,30.18,6.2,WSW,9.2,-,N/A,,Mostly Cloudy,250,2013-05-01 07:00:00
5:30 PM,55.4,44.6,67,30.21,6.2,WSW,11.5,-,N/A,,Mostly Cloudy,250,2013-05-01 07:30:00
6:00 PM,55,44,55,30.23,,WSW,12.7,,,,,250,2013-05-01 08:00:00
6:00 PM,55.4,42.8,63,30.21,6.2,WSW,12.7,-,N/A,,Mostly Cloudy,250,2013-05-01 08:00:00
6:30 PM,53.6,42.8,67,30.24,6.2,WSW,13.8,-,N/A,,Mostly Cloudy,250,2013-05-01 08:30:00
7:00 PM,51.8,42.8,71,30.24,6.2,SW,9.2,-,N/A,Rain,Light Rain Showers,230,2013-05-01 09:00:00
7:30 PM,51.8,44.6,76,30.27,6.2,SW,10.4,-,N/A,,Mostly Cloudy,230,2013-05-01 09:30:00
8:00 PM,48.2,42.8,82,30.27,6.2,West,10.4,-,N/A,,Scattered Clouds,280,2013-05-01 10:00:00
8:30 PM,48.2,44.6,87,30.27,6.2,WNW,11.5,-,N/A,Rain,Light Rain Showers,290,2013-05-01 10:30:00
9:00 PM,47,43,79,30.30,,NW,8.1,,,,,310,2013-05-01 11:00:00
9:00 PM,46.4,42.8,87,30.30,6.2,NW,8.1,-,N/A,,Unknown,310,2013-05-01 11:00:00
9:30 PM,46.4,42.8,87,30.30,6.2,WNW,9.2,-,N/A,,Scattered Clouds,290,2013-05-01 11:30:00
10:00 PM,46.4,42.8,87,30.30,6.2,West,9.2,-,N/A,,Scattered Clouds,270,2013-05-01 12:00:00
10:30 PM,46.4,42.8,87,30.30,6.2,West,6.9,-,N/A,,Scattered Clouds,270,2013-05-01 12:30:00
11:00 PM,44.6,42.8,93,30.30,6.2,West,8.1,-,N/A,,Scattered Clouds,280,2013-05-01 13:00:00
11:30 PM,44.6,41.0,87,30.30,6.2,WNW,8.1,-,N/A,,Scattered Clouds,290,2013-05-01 13:30:00